Newark Heath, OH

5:28 PM EDT on June 23, 2017 (GMT -0400)
Newark Heath

Weather History for KVTA - September, 2013

Change the Weather History Date:

Sunday, September 29, 2013

  Actual Average Record
Temperature  
Mean Temperature 62 °F -  
Max Temperature 75 °F 71 °F 96 °F (1953)
Min Temperature 48 °F 45 °F 25 °F (1942)
Degree Days  
Heating Degree Days 4    
Growing Degree Days 12 (Base 50)    
Moisture  
Dew Point 51 °F    
Average Humidity 86    
Maximum Humidity 100    
Minimum Humidity 50    
Precipitation  
Precipitation 0.00 in - - ()
Sea Level Pressure  
Sea Level Pressure 30.07 in    
Wind  
Wind Speed 1 mph (SSW)    
Max Wind Speed 9 mph    
Max Gust Speed -    
Visibility 4 miles    
Events Fog    
Averages and records for this station are not official NWS values.
T = Trace of Precipitation, MM = Missing Value Source: NWS Daily Summary

Daily Weather History Graph

Daily Weather History Graph

Search for Another Location

Airport or City:

Trip Planner

Search our weather history database for the weather conditions in past years. The results will help you decide how hot, cold, wet, or windy it might be!

Date:

Astronomy

Sep. 29, 2013 Rise Set
Actual Time 7:24 AM EDT 7:15 PM EDT
Civil Twilight 6:57 AM EDT 7:41 PM EDT
Nautical Twilight 6:25 AM EDT 8:13 PM EDT
Astronomical Twilight 5:54 AM EDT 8:45 PM EDT
Moon 2:04 AM EDT (9/29) 4:10 PM EDT (9/29)
Length of Visible Light 12h 44m
Length of Day
11h 50m
Waning Crescent, 27% of the Moon is Illuminated
Sep 29
Waning Crescent
Oct 4
New
Oct 11
First Quarter
Oct 18
Full
Oct 26
Last Quarter

Hourly Weather History & Observations

Time (EDT) Temp. Dew Point Humidity Pressure Visibility Wind Dir Wind Speed Gust Speed Precip Events Conditions
12:12 AM 51.8 °F 50.0 °F 94% 30.11 in 2.0 mi Calm Calm - N/A   Clear
12:21 AM 51.8 °F 50.0 °F 94% 30.11 in 1.8 mi Calm Calm - N/A   Clear
12:29 AM 51.8 °F 48.2 °F 88% 30.11 in 2.0 mi Calm Calm - N/A   Clear
12:54 AM 52.0 °F 50.0 °F 93% 30.09 in 1.2 mi Calm Calm - N/A   Clear
1:03 AM 51.8 °F 48.2 °F 88% 30.10 in 0.5 mi Calm Calm - N/A Fog Fog
1:24 AM 51.8 °F 48.2 °F 88% 30.10 in 2.0 mi Calm Calm - N/A   Clear
1:31 AM 51.8 °F 48.2 °F 88% 30.10 in 4.0 mi Calm Calm - N/A   Clear
1:34 AM 51.8 °F 48.2 °F 88% 30.10 in 1.5 mi Calm Calm - N/A   Clear
1:42 AM 50.0 °F 48.2 °F 94% 30.10 in 0.5 mi Calm Calm - N/A Fog Fog
1:54 AM 50.0 °F 48.0 °F 93% 30.10 in 0.8 mi Calm Calm - N/A   Clear
2:48 AM 50.0 °F 48.2 °F 94% 30.10 in 1.8 mi Calm Calm - N/A   Partly Cloudy
2:54 AM 50.0 °F 48.0 °F 93% 30.09 in 1.2 mi Calm Calm - N/A   Scattered Clouds
3:01 AM 48.2 °F 46.4 °F 93% 30.09 in 0.5 mi Calm Calm - N/A Fog Fog
3:07 AM 50.0 °F 48.2 °F 94% 30.09 in 1.8 mi Calm Calm - N/A   Partly Cloudy
3:21 AM 48.2 °F 46.4 °F 93% 30.09 in 3.0 mi Calm Calm - N/A   Partly Cloudy
3:40 AM 50.0 °F 48.2 °F 94% 30.09 in 3.0 mi Calm Calm - N/A   Mostly Cloudy
3:45 AM 50.0 °F 48.2 °F 94% 30.08 in 1.5 mi Calm Calm - N/A   Mostly Cloudy
3:54 AM 50.0 °F 48.0 °F 93% 30.07 in 0.8 mi Calm Calm - N/A   Mist
4:03 AM 48.2 °F 48.2 °F 100% 30.08 in 0.2 mi Calm Calm - N/A Fog Fog
4:12 AM 48.2 °F 46.4 °F 93% 30.08 in 0.5 mi Calm Calm - N/A Fog Fog
4:20 AM 48.2 °F 46.4 °F 93% 30.08 in 0.2 mi Calm Calm - N/A Fog Fog
4:48 AM 50.0 °F 48.2 °F 94% 30.08 in 0.5 mi Calm Calm - N/A Fog Fog
4:52 AM 50.0 °F 48.2 °F 94% 30.08 in 1.5 mi Calm Calm - N/A   Mostly Cloudy
4:54 AM 48.9 °F 48.0 °F 97% 30.07 in 1.8 mi Calm Calm - N/A   Mostly Cloudy
5:54 AM 48.9 °F 48.0 °F 97% 30.08 in 1.8 mi Calm Calm - N/A   Scattered Clouds
6:54 AM 50.0 °F 48.0 °F 93% 30.09 in 1.5 mi Calm Calm - N/A   Clear
7:07 AM 48.2 °F 46.4 °F 93% 30.09 in 0.5 mi Calm Calm - N/A Fog Fog
7:16 AM 48.2 °F 46.4 °F 93% 30.09 in 0.5 mi Calm Calm - N/A Fog Fog
7:25 AM 48.2 °F 46.4 °F 93% 30.09 in 1.5 mi Calm Calm - N/A   Partly Cloudy
7:54 AM 48.9 °F 46.9 °F 93% 30.09 in 1.2 mi Calm Calm - N/A   Clear
8:30 AM 53.6 °F 51.8 °F 94% 30.09 in 2.0 mi Calm Calm - N/A   Clear
8:54 AM 57.9 °F 55.0 °F 90% 30.09 in 4.0 mi Calm Calm - N/A   Scattered Clouds
9:54 AM 61.0 °F 55.9 °F 83% 30.08 in 10.0 mi SSE 4.6 mph - N/A   Partly Cloudy
10:54 AM 66.0 °F 57.0 °F 73% 30.08 in 10.0 mi SSE 4.6 mph - N/A   Partly Cloudy
11:54 AM 70.0 °F 57.0 °F 63% 30.07 in 10.0 mi SSW 5.8 mph - N/A   Mostly Cloudy
12:54 PM 73.9 °F 57.9 °F 57% 30.06 in 10.0 mi Calm Calm - N/A   Partly Cloudy
1:54 PM 73.9 °F 57.0 °F 55% 30.04 in 10.0 mi SSW 6.9 mph - N/A   Clear
2:54 PM 75.0 °F 55.0 °F 50% 30.01 in 10.0 mi SW 9.2 mph - N/A   Clear
3:54 PM 73.0 °F 57.9 °F 59% 30.00 in 10.0 mi South 6.9 mph - N/A   Mostly Cloudy
4:54 PM 72.0 °F 59.0 °F 64% 30.00 in 10.0 mi South 5.8 mph - N/A   Overcast
5:54 PM 71.1 °F 59.0 °F 66% 30.01 in 10.0 mi WSW 6.9 mph - N/A   Overcast
6:54 PM 68.0 °F 57.9 °F 70% 30.01 in 10.0 mi WNW 3.5 mph - N/A   Overcast
7:54 PM 66.0 °F 57.9 °F 75% 30.02 in 10.0 mi Calm Calm - N/A   Overcast
8:54 PM 62.1 °F 57.9 °F 86% 30.03 in 10.0 mi Calm Calm - N/A   Scattered Clouds
9:54 PM 59.0 °F 55.9 °F 90% 30.02 in 7.0 mi Calm Calm - N/A   Clear
10:22 PM 57.2 °F 55.4 °F 94% 30.03 in 1.8 mi Calm Calm - N/A   Scattered Clouds
10:35 PM 57.2 °F 55.4 °F 94% 30.03 in 3.0 mi Calm Calm - N/A   Mostly Cloudy
10:54 PM 59.0 °F 55.9 °F 90% 30.03 in 8.0 mi Calm Calm - N/A   Overcast
11:54 PM 60.1 °F 57.0 °F 90% 30.02 in 9.0 mi Calm Calm - N/A   Overcast